Cincinnati, OH

12:04 PM EDT on May 27, 2017 (GMT -0400)
Cincinnati Municipal-Lunken

Weather History for KLUK - March, 2013

Change the Weather History Date:

Sunday, March 3, 2013

  Actual Average Record
Temperature  
Mean Temperature 28 °F -  
Max Temperature 32 °F 50 °F 78 °F (1992)
Min Temperature 21 °F 32 °F -6 °F (1980)
Degree Days  
Heating Degree Days 37    
Moisture  
Dew Point 20 °F    
Average Humidity 69    
Maximum Humidity 89    
Minimum Humidity 57    
Precipitation  
Precipitation 0.00 in - - ()
Sea Level Pressure  
Sea Level Pressure 30.11 in    
Wind  
Wind Speed 6 mph (NW)    
Max Wind Speed 9 mph    
Max Gust Speed 17 mph    
Visibility 8 miles    
Events Snow    
Averages and records for this station are not official NWS values.
T = Trace of Precipitation, MM = Missing Value Source: NWS Daily Summary

Daily Weather History Graph

Daily Weather History Graph

Search for Another Location

Airport or City:

Trip Planner

Search our weather history database for the weather conditions in past years. The results will help you decide how hot, cold, wet, or windy it might be!

Date:

Astronomy

Mar. 03, 2013 Rise Set
Actual Time 7:06 AM EST 6:32 PM EST
Civil Twilight 6:40 AM EST 6:59 PM EST
Nautical Twilight 6:09 AM EST 7:30 PM EST
Astronomical Twilight 5:38 AM EST 8:01 PM EST
Moon 12:07 AM EST (3/3) 10:24 AM EST (3/3)
Length of Visible Light 12h 19m
Length of Day
11h 25m
Waning Gibbous, 64% of the Moon is Illuminated
Mar 3
Waning Gibbous
Mar 4
Last Quarter
Mar 11
New
Mar 19
First Quarter
Mar 27
Full

Hourly Weather History & Observations

Time (EST) Temp. Windchill Dew Point Humidity Pressure Visibility Wind Dir Wind Speed Gust Speed Precip Events Conditions
12:53 AM 30.0 °F 25.2 °F 19.9 °F 66% 30.10 in 10.0 mi West 4.6 mph - N/A   Overcast
1:53 AM 30.0 °F 26.5 °F 21.9 °F 72% 30.10 in 10.0 mi NW 3.5 mph - N/A   Overcast
2:53 AM 30.0 °F 23.2 °F 21.0 °F 69% 30.09 in 10.0 mi NNW 6.9 mph - N/A   Overcast
3:53 AM 28.9 °F 20.4 °F 21.9 °F 75% 30.09 in 10.0 mi NNW 9.2 mph - N/A   Overcast
4:53 AM 28.0 °F 21.7 °F 21.0 °F 75% 30.09 in 10.0 mi NNW 5.8 mph - N/A   Overcast
5:09 AM 28.4 °F 21.2 °F 19.4 °F 69% 30.08 in 10.0 mi NNW 6.9 mph - N/A   Overcast
5:23 AM 28.4 °F 19.7 °F 17.6 °F 64% 30.08 in 10.0 mi NNW 9.2 mph - N/A   Overcast
5:53 AM 28.0 °F 20.8 °F 17.1 °F 63% 30.09 in 10.0 mi NNW 6.9 mph - N/A   Overcast
6:53 AM 28.0 °F 20.8 °F 16.0 °F 61% 30.10 in 10.0 mi NNW 6.9 mph - N/A   Overcast
7:53 AM 28.0 °F 21.7 °F 15.1 °F 58% 30.10 in 10.0 mi NW 5.8 mph - N/A   Overcast
8:53 AM 28.0 °F 21.7 °F 17.1 °F 63% 30.12 in 10.0 mi NW 5.8 mph - N/A   Overcast
9:53 AM 28.0 °F 22.8 °F 19.9 °F 72% 30.12 in 6.0 mi NNW 4.6 mph - 0.00 in Snow Light Snow
10:45 AM 28.4 °F 23.3 °F 21.2 °F 74% 30.11 in 3.0 mi NW 4.6 mph - 0.00 in Snow Light Snow
10:53 AM 28.0 °F 24.2 °F 23.0 °F 81% 30.13 in 2.5 mi NNW 3.5 mph - 0.00 in Snow Light Snow
11:53 AM 30.0 °F 22.4 °F 23.0 °F 75% 30.12 in 4.0 mi NW 8.1 mph - 0.00 in Snow Light Snow
12:53 PM 28.9 °F 21.1 °F 24.1 °F 82% 30.11 in 2.0 mi WNW 8.1 mph - 0.00 in Snow Light Snow
1:01 PM 30.2 °F 22.6 °F 24.8 °F 80% 30.09 in 3.0 mi North 8.1 mph - 0.00 in Snow Light Snow
1:53 PM 30.9 °F 26.2 °F 21.0 °F 67% 30.09 in 10.0 mi NNW 4.6 mph - 0.00 in   Overcast
2:53 PM 32.0 °F 24.8 °F 19.9 °F 61% 30.09 in 10.0 mi NNW 8.1 mph - 0.00 in   Overcast
3:53 PM 30.9 °F 22.8 °F 21.0 °F 67% 30.09 in 8.0 mi NW 9.2 mph 17.3 mph 0.00 in Snow Light Snow
4:53 PM 32.0 °F 28.7 °F 21.9 °F 66% 30.09 in 8.0 mi West 3.5 mph - 0.00 in Snow Light Snow
5:53 PM 30.9 °F 24.3 °F 19.0 °F 61% 30.11 in 9.0 mi WNW 6.9 mph - 0.00 in   Overcast
6:53 PM 30.9 °F 23.5 °F 17.1 °F 57% 30.12 in 10.0 mi NW 8.1 mph - N/A   Overcast
7:53 PM 30.0 °F 25.2 °F 17.1 °F 59% 30.12 in 10.0 mi Variable 4.6 mph - N/A   Mostly Cloudy
8:53 PM 28.9 °F 25.2 °F 17.1 °F 61% 30.13 in 10.0 mi NNW 3.5 mph - N/A   Clear
9:53 PM 26.1 °F - 18.0 °F 71% 30.13 in 10.0 mi Calm Calm - N/A   Clear
10:53 PM 24.1 °F - 19.0 °F 81% 30.13 in 10.0 mi Calm Calm - N/A   Clear
11:53 PM 21.9 °F - 19.0 °F 89% 30.14 in 10.0 mi Calm Calm - N/A   Clear